Weather History for Meadow Lake, CO

Change the Weather History Date:

Monday, August 6, 2012

  Actual Average (KCOS) Record (KCOS)
Temperature  
Mean Temperature 76 °F 70 °F  
Max Temperature 93 °F 83 °F 96 °F (1979)
Min Temperature 60 °F 57 °F 48 °F (1928)
Degree Days  
Heating Degree Days 0 0  
Month to date heating degree days 0  
Since 1 June heating degree days 89  
Since 1 July heating degree days 10  
Cooling Degree Days 10 5  
Month to date cooling degree days 33  
Year to date cooling degree days 317  
Since 1 June cooling degree days 307  
Growing Degree Days 26 (Base 50)    
Moisture  
Dew Point 38 °F    
Average Humidity 30    
Maximum Humidity 71    
Minimum Humidity 12    
Precipitation  
Precipitation 0.00 in 0.12 in 1.01 in (1936)
Month to date precipitation 0.72  
Year to date precipitation 11.17  
Snow  
Snow 0.00 in 0.00 in 0.00 in (2002)
Month to date snowfall 0.0  
Since 1 June snowfall 0.0  
Since 1 July snowfall 0.0  
Snow Depth -    
Sea Level Pressure  
Sea Level Pressure 30.37 in    
Wind  
Wind Speed 10 mph (NW)    
Max Wind Speed 18 mph    
Max Gust Speed 28 mph    
Visibility 10 miles    
Events Thunderstorm    
T = Trace of Precipitation, MM = Missing Value Source: NWS Daily Summary

Daily Weather History Graph

Daily Weather History Graph

Search for Another Location

Airport:

Trip Planner

Search our weather history database for the weather conditions in past years. The results will help you decide how hot, cold, wet, or windy it might be!

Date:

Astronomy

Aug. 06, 2012 Rise Set
Actual Time 6:04 AM MDT 8:03 PM MDT
Civil Twilight 5:34 AM MDT 8:32 PM MDT
Nautical Twilight 4:59 AM MDT 9:08 PM MDT
Astronomical Twilight 4:20 AM MDT 9:46 PM MDT
Moon 10:17 PM MDT (8/6) 10:52 AM MDT (8/6)
Length of Visible Light 14h 57m
Length of Day
13h 59m
Waning Gibbous, 78% of the Moon is Illuminated
Aug 6
Waning Gibbous
Aug 9
Last Quarter
Aug 17
New
Aug 24
First Quarter
Aug 31
Full

Hourly Weather History & Observations

Time (MDT) Temp. Dew Point Humidity Pressure Visibility Wind Dir Wind Speed Gust Speed Precip Events Conditions
12:14 AM 60.8 °F 51.1 °F 70% 30.39 in 10.0 mi West 10.4 mph - N/A   Clear
12:34 AM 62.1 °F 51.1 °F 67% 30.39 in 10.0 mi West 11.5 mph - N/A   Clear
12:54 AM 60.6 °F 51.3 °F 71% 30.38 in 10.0 mi West 5.8 mph - N/A   Clear
1:14 AM 62.6 °F 50.5 °F 65% 30.38 in 10.0 mi West 12.7 mph - N/A   Clear
1:34 AM 61.7 °F 50.5 °F 67% 30.38 in 10.0 mi West 13.8 mph - N/A   Clear
1:54 AM 62.8 °F 50.0 °F 63% 30.37 in 10.0 mi West 11.5 mph - N/A   Clear
2:14 AM 62.1 °F 49.1 °F 62% 30.37 in 10.0 mi WNW 12.7 mph - N/A   Clear
2:34 AM 62.6 °F 48.7 °F 60% 30.37 in 10.0 mi WNW 11.5 mph - N/A   Clear
2:54 AM 63.3 °F 47.3 °F 56% 30.36 in 10.0 mi WNW 11.5 mph - N/A   Clear
3:14 AM 62.4 °F 46.2 °F 55% 30.36 in 10.0 mi WNW 8.1 mph - N/A   Clear
3:34 AM 62.2 °F 45.5 °F 54% 30.35 in 10.0 mi West 9.2 mph - N/A   Clear
3:54 AM 63.3 °F 43.9 °F 49% 30.34 in 10.0 mi WNW 9.2 mph - N/A   Clear
4:14 AM 65.5 °F 42.8 °F 44% 30.34 in 10.0 mi WNW 9.2 mph - N/A   Clear
4:34 AM 65.5 °F 42.4 °F 43% 30.34 in 10.0 mi WNW 9.2 mph 16.1 mph N/A   Clear
4:54 AM 64.0 °F 43.0 °F 46% 30.34 in 10.0 mi WNW 13.8 mph - N/A   Clear
5:14 AM 66.4 °F 41.9 °F 41% 30.35 in 10.0 mi WNW 13.8 mph 18.4 mph N/A   Clear
5:34 AM 67.6 °F 40.8 °F 38% 30.35 in 10.0 mi WNW 11.5 mph - N/A   Clear
5:54 AM 65.3 °F 41.5 °F 42% 30.35 in 10.0 mi WNW 8.1 mph - N/A   Clear
6:14 AM 67.1 °F 41.2 °F 39% 30.36 in 10.0 mi WNW 8.1 mph - N/A   Clear
6:34 AM 66.4 °F 41.7 °F 41% 30.36 in 10.0 mi WNW 13.8 mph - N/A   Clear
6:54 AM 68.9 °F 41.7 °F 37% 30.36 in 10.0 mi WNW 12.7 mph - N/A   Clear
7:14 AM 69.8 °F 41.4 °F 36% 30.36 in 10.0 mi NW 10.4 mph 17.3 mph N/A   Clear
7:34 AM 71.1 °F 39.9 °F 32% 30.37 in 10.0 mi NNW 9.2 mph - N/A   Clear
7:54 AM 74.8 °F 40.5 °F 29% 30.38 in 10.0 mi NNW 6.9 mph - N/A   Clear
8:14 AM 77.2 °F 40.6 °F 27% 30.38 in 10.0 mi NNW 3.5 mph - N/A   Clear
8:34 AM 78.4 °F 39.9 °F 25% 30.38 in 10.0 mi NNW 8.1 mph - N/A   Clear
8:54 AM 81.1 °F 37.0 °F 21% 30.38 in 10.0 mi NNW 10.4 mph - N/A   Clear
9:14 AM 83.1 °F 35.6 °F 18% 30.38 in 10.0 mi NNW 10.4 mph 19.6 mph N/A   Clear
9:34 AM 84.4 °F 34.3 °F 17% 30.38 in 10.0 mi NNW 12.7 mph 19.6 mph N/A   Clear
9:54 AM 84.4 °F 32.9 °F 16% 30.38 in 10.0 mi NNW 11.5 mph 21.9 mph N/A   Clear
10:14 AM 85.6 °F 34.2 °F 16% 30.38 in 10.0 mi NNW 10.4 mph 21.9 mph N/A   Clear
10:34 AM 86.4 °F 34.0 °F 15% 30.38 in 10.0 mi North 13.8 mph 21.9 mph N/A   Clear
10:54 AM 86.7 °F 32.9 °F 15% 30.38 in 10.0 mi North 11.5 mph 20.7 mph N/A   Clear
11:14 AM 86.0 °F 32.0 °F 14% 30.38 in 10.0 mi NNW 6.9 mph 21.9 mph N/A   Clear
11:34 AM 88.3 °F 32.5 °F 14% 30.38 in 10.0 mi NNE 12.7 mph 18.4 mph N/A   Clear
11:54 AM 88.7 °F 32.5 °F 13% 30.38 in 10.0 mi North 16.1 mph 20.7 mph N/A   Clear
12:14 PM 89.2 °F 32.9 °F 13% 30.38 in 10.0 mi NNW 10.4 mph 19.6 mph N/A   Clear
12:34 PM 89.6 °F 33.1 °F 13% 30.38 in 10.0 mi NE 9.2 mph 19.6 mph N/A   Scattered Clouds
12:54 PM 91.0 °F 33.4 °F 13% 30.37 in 10.0 mi NNW 9.2 mph 20.7 mph N/A   Clear
1:14 PM 87.3 °F 31.5 °F 14% 30.37 in 10.0 mi NNW 4.6 mph - N/A   Clear
1:34 PM 87.6 °F 32.0 °F 14% 30.36 in 10.0 mi SSE 3.5 mph 18.4 mph N/A   Clear
1:54 PM 90.1 °F 31.8 °F 13% 30.36 in 10.0 mi North - - N/A   Scattered Clouds
2:14 PM 91.2 °F 30.7 °F 12% 30.35 in 10.0 mi NW 6.9 mph - N/A   Scattered Clouds
2:34 PM 89.2 °F 31.8 °F 13% 30.35 in 10.0 mi North - - N/A   Scattered Clouds
3:13 PM 86.4 °F 30.7 °F 14% 30.35 in 10.0 mi SSW 3.5 mph - N/A   Scattered Clouds
3:34 PM 85.8 °F 31.5 °F 14% 30.34 in 10.0 mi Calm Calm - N/A   Scattered Clouds
3:53 PM 85.3 °F 32.2 °F 15% 30.34 in 10.0 mi North 5.8 mph - N/A Thunderstorm Mostly Cloudy
4:14 PM 85.1 °F 31.3 °F 14% 30.34 in 10.0 mi North 6.9 mph 18.4 mph N/A   Overcast
4:34 PM 85.3 °F 30.6 °F 14% 30.34 in 10.0 mi North 8.1 mph - N/A   Mostly Cloudy
4:53 PM 84.7 °F 29.8 °F 14% 30.34 in 10.0 mi NNE 8.1 mph - N/A   Mostly Cloudy
5:14 PM 83.5 °F 31.1 °F 15% 30.35 in 10.0 mi WNW 6.9 mph - N/A   Mostly Cloudy
5:34 PM 82.4 °F 34.2 °F 18% 30.35 in 10.0 mi NNW 6.9 mph - N/A   Mostly Cloudy
5:54 PM 83.3 °F 30.6 °F 15% 30.36 in 10.0 mi WNW 4.6 mph 23.0 mph N/A   Mostly Cloudy
6:14 PM 81.3 °F 36.1 °F 20% 30.36 in 10.0 mi NNW 15.0 mph 25.3 mph N/A   Mostly Cloudy
6:34 PM 80.6 °F 36.3 °F 20% 30.36 in 10.0 mi NNW 13.8 mph 24.2 mph N/A   Scattered Clouds
6:54 PM 79.7 °F 36.9 °F 21% 30.37 in 10.0 mi NNW 10.4 mph 21.9 mph N/A   Scattered Clouds
7:14 PM 78.8 °F 36.5 °F 22% 30.37 in 10.0 mi NNW 12.7 mph 20.7 mph N/A   Scattered Clouds
7:34 PM 78.4 °F 35.8 °F 21% 30.37 in 10.0 mi NNW 10.4 mph 17.3 mph N/A   Clear
7:54 PM 77.7 °F 35.6 °F 22% 30.37 in 10.0 mi NNW 10.4 mph - N/A   Scattered Clouds
8:14 PM 77.0 °F 36.7 °F 23% 30.38 in 10.0 mi NW 10.4 mph 17.3 mph N/A   Mostly Cloudy
8:34 PM 76.3 °F 37.4 °F 25% 30.38 in 10.0 mi NNW 16.1 mph 21.9 mph N/A   Overcast
8:54 PM 75.2 °F 40.1 °F 28% 30.38 in 10.0 mi NNW 18.4 mph 27.6 mph N/A   Mostly Cloudy
9:14 PM 74.8 °F 40.1 °F 29% 30.39 in 10.0 mi NNW 12.7 mph 27.6 mph N/A   Mostly Cloudy
9:34 PM 74.8 °F 39.4 °F 28% 30.40 in 10.0 mi NNW 16.1 mph 21.9 mph N/A   Overcast
9:54 PM 74.3 °F 39.2 °F 28% 30.40 in 10.0 mi NNW 15.0 mph 26.5 mph N/A   Mostly Cloudy
10:14 PM 74.3 °F 39.2 °F 28% 30.39 in 10.0 mi NNW 16.1 mph 25.3 mph N/A   Scattered Clouds
10:34 PM 74.3 °F 38.7 °F 28% 30.38 in 10.0 mi NNW 13.8 mph 23.0 mph N/A   Scattered Clouds
10:54 PM 73.8 °F 38.8 °F 28% 30.38 in 10.0 mi NNW 15.0 mph 23.0 mph N/A   Scattered Clouds
11:14 PM 72.9 °F 39.4 °F 30% 30.38 in 10.0 mi North 15.0 mph 24.2 mph N/A   Mostly Cloudy
11:34 PM 72.0 °F 39.7 °F 31% 30.38 in 10.0 mi North 17.3 mph 24.2 mph N/A   Mostly Cloudy
11:54 PM 71.8 °F 40.1 °F 32% 30.38 in 10.0 mi NNW 15.0 mph 25.3 mph N/A   Scattered Clouds